Tracking 20083 objects as of 12-Dec-2019
HD Live streaming from Space Station
objects crossing your sky now

SL-6 R/B(2)

Track SL-6 R/B(2) now!


NORAD ID: 19810
Int'l Code: 1989-014D
Perigee: 1,807.6 km
Apogee: 37,398.7 km
Inclination: 64.4 °
Period: 694.3 minutes
Semi major axis: 25974 km
RCS: 8.2817 m2 (large)
Launch date: February 15, 1989
Source: Commonwealth of Independent States (former USSR) (CIS)
Launch site: TYURATAM MISSILE AND SPACE COMPLEX (TTMTR)

Note: This is a ROCKET BODY
aabbcc
Your satellite tracking list
Your tracking list is empty




NASA's NSSDC Master Catalog

Two Line Element Set (TLE):
1 19810U 89014D   19345.27411981  .00000202  00000-0  00000+0 0  9999
2 19810  64.3554 304.8683 6851247 271.8549  17.4805  2.07391097233381
Source of the keplerian elements: AFSPC